Year,Month,Day,Hour,Minute,Value (Times are PST for temperature in C)
2013,07,28,00,00,15.50
2013,07,28,00,01,15.50
2013,07,28,00,02,15.50
2013,07,28,00,03,15.40
2013,07,28,00,04,15.40
2013,07,28,00,05,15.40
2013,07,28,00,06,15.40
2013,07,28,00,07,15.40
2013,07,28,00,08,15.40
2013,07,28,00,09,15.40
2013,07,28,00,10,15.40
2013,07,28,00,11,15.40
2013,07,28,00,12,15.30
2013,07,28,00,13,15.30
2013,07,28,00,14,15.30
2013,07,28,00,15,15.30
2013,07,28,00,16,15.30
2013,07,28,00,17,15.30
2013,07,28,00,18,15.20
2013,07,28,00,19,15.20
2013,07,28,00,20,15.20
2013,07,28,00,21,15.10
2013,07,28,00,22,15.10
2013,07,28,00,23,15.10
2013,07,28,00,24,15.10
2013,07,28,00,25,15.10
2013,07,28,00,26,15.00
2013,07,28,00,27,15.00
2013,07,28,00,28,15.00
2013,07,28,00,29,14.90
2013,07,28,00,30,14.90
2013,07,28,00,31,14.90
2013,07,28,00,32,14.90
2013,07,28,00,33,14.90
2013,07,28,00,34,14.90
2013,07,28,00,35,14.90
2013,07,28,00,36,14.90
2013,07,28,00,37,14.80
2013,07,28,00,38,14.80
2013,07,28,00,39,14.80
2013,07,28,00,40,14.80
2013,07,28,00,41,14.80
2013,07,28,00,42,14.80
2013,07,28,00,43,14.80
2013,07,28,00,44,14.80
2013,07,28,00,45,14.80
2013,07,28,00,46,14.80
2013,07,28,00,47,14.70
2013,07,28,00,48,14.70
2013,07,28,00,49,14.60
2013,07,28,00,50,14.60
2013,07,28,00,51,14.50
2013,07,28,00,52,14.40
2013,07,28,00,53,14.40
2013,07,28,00,54,14.30
2013,07,28,00,55,14.30
2013,07,28,00,56,14.30
2013,07,28,00,57,14.30
2013,07,28,00,58,14.30
2013,07,28,00,59,14.30
2013,07,28,01,00,14.20
2013,07,28,01,01,14.20
2013,07,28,01,02,14.20
2013,07,28,01,03,14.20
2013,07,28,01,04,14.10
2013,07,28,01,05,14.10
2013,07,28,01,06,14.10
2013,07,28,01,07,14.10
2013,07,28,01,08,14.10
2013,07,28,01,09,14.10
2013,07,28,01,10,14.10
2013,07,28,01,11,14.10
2013,07,28,01,12,14.10
2013,07,28,01,13,14.10
2013,07,28,01,14,14.10
2013,07,28,01,15,14.10
2013,07,28,01,16,14.00
2013,07,28,01,17,14.00
2013,07,28,01,18,13.90
2013,07,28,01,19,13.90
2013,07,28,01,20,13.90
2013,07,28,01,21,13.80
2013,07,28,01,22,13.80
2013,07,28,01,23,13.80
2013,07,28,01,24,13.80
2013,07,28,01,25,13.70
2013,07,28,01,26,13.70
2013,07,28,01,27,13.60
2013,07,28,01,28,13.60
2013,07,28,01,29,13.60
2013,07,28,01,30,13.50
2013,07,28,01,31,13.50
2013,07,28,01,32,13.50
2013,07,28,01,33,13.40
2013,07,28,01,34,13.40
2013,07,28,01,35,13.40
2013,07,28,01,36,13.40
2013,07,28,01,37,13.40
2013,07,28,01,38,13.30
2013,07,28,01,39,13.30
2013,07,28,01,40,13.30
2013,07,28,01,41,13.30
2013,07,28,01,42,13.20
2013,07,28,01,43,13.20
2013,07,28,01,44,13.20
2013,07,28,01,45,13.10
2013,07,28,01,46,13.10
2013,07,28,01,47,13.00
2013,07,28,01,48,13.00
2013,07,28,01,49,12.90
2013,07,28,01,50,12.90
2013,07,28,01,51,12.80
2013,07,28,01,52,12.80
2013,07,28,01,53,12.80
2013,07,28,01,54,12.80
2013,07,28,01,55,12.80
2013,07,28,01,56,12.70
2013,07,28,01,57,12.70
2013,07,28,01,58,12.70
2013,07,28,01,59,12.70
2013,07,28,02,00,12.60
2013,07,28,02,01,12.60
2013,07,28,02,02,12.60
2013,07,28,02,03,12.60
2013,07,28,02,04,12.60
2013,07,28,02,05,12.60
2013,07,28,02,06,12.60
2013,07,28,02,07,12.60
2013,07,28,02,08,12.50
2013,07,28,02,09,12.50
2013,07,28,02,10,12.50
2013,07,28,02,11,12.40
2013,07,28,02,12,12.40
2013,07,28,02,13,12.40
2013,07,28,02,14,12.40
2013,07,28,02,15,12.40
2013,07,28,02,16,12.30
2013,07,28,02,17,12.30
2013,07,28,02,18,12.30
2013,07,28,02,19,12.30
2013,07,28,02,20,12.30
2013,07,28,02,21,12.30
2013,07,28,02,22,12.30
2013,07,28,02,23,12.20
2013,07,28,02,24,12.20
2013,07,28,02,25,12.20
2013,07,28,02,26,12.20
2013,07,28,02,27,12.20
2013,07,28,02,28,12.10
2013,07,28,02,29,12.10
2013,07,28,02,30,12.10
2013,07,28,02,31,12.10
2013,07,28,02,32,12.10
2013,07,28,02,33,12.00
2013,07,28,02,34,12.00
2013,07,28,02,35,12.00
2013,07,28,02,36,11.90
2013,07,28,02,37,11.90
2013,07,28,02,38,11.90
2013,07,28,02,39,11.90
2013,07,28,02,40,11.80
2013,07,28,02,41,11.80
2013,07,28,02,42,11.80
2013,07,28,02,43,11.80
2013,07,28,02,44,11.80
2013,07,28,02,45,11.70
2013,07,28,02,46,11.70
2013,07,28,02,47,11.70
2013,07,28,02,48,11.60
2013,07,28,02,49,11.60
2013,07,28,02,50,11.60
2013,07,28,02,51,11.60
2013,07,28,02,52,11.60
2013,07,28,02,53,11.50
2013,07,28,02,54,11.50
2013,07,28,02,55,11.50
2013,07,28,02,56,11.40
2013,07,28,02,57,11.40
2013,07,28,02,58,11.40
2013,07,28,02,59,11.40
2013,07,28,03,00,11.40
2013,07,28,03,01,11.40
2013,07,28,03,02,11.40
2013,07,28,03,03,11.30
2013,07,28,03,04,11.30
2013,07,28,03,05,11.30
2013,07,28,03,06,11.30
2013,07,28,03,07,11.30
2013,07,28,03,08,11.30
2013,07,28,03,09,11.30
2013,07,28,03,10,11.30
2013,07,28,03,11,11.30
2013,07,28,03,12,11.30
2013,07,28,03,13,11.30
2013,07,28,03,14,11.30
2013,07,28,03,15,11.30
2013,07,28,03,16,11.30
2013,07,28,03,17,11.30
2013,07,28,03,18,11.30
2013,07,28,03,19,11.30
2013,07,28,03,20,11.20
2013,07,28,03,21,11.20
2013,07,28,03,22,11.20
2013,07,28,03,23,11.20
2013,07,28,03,24,11.20
2013,07,28,03,25,11.20
2013,07,28,03,26,11.20
2013,07,28,03,27,11.20
2013,07,28,03,28,11.20
2013,07,28,03,29,11.20
2013,07,28,03,30,11.20
2013,07,28,03,31,11.20
2013,07,28,03,32,11.30
2013,07,28,03,33,11.20
2013,07,28,03,34,11.30
2013,07,28,03,35,11.30
2013,07,28,03,36,11.20
2013,07,28,03,37,11.20
2013,07,28,03,38,11.20
2013,07,28,03,39,11.20
2013,07,28,03,40,11.20
2013,07,28,03,41,11.20
2013,07,28,03,42,11.20
2013,07,28,03,43,11.20
2013,07,28,03,44,11.20
2013,07,28,03,45,11.20
2013,07,28,03,46,11.20
2013,07,28,03,47,11.20
2013,07,28,03,48,11.20
2013,07,28,03,49,11.20
2013,07,28,03,50,11.20
2013,07,28,03,51,11.20
2013,07,28,03,52,11.20
2013,07,28,03,53,11.20
2013,07,28,03,54,11.20
2013,07,28,03,55,11.20
2013,07,28,03,56,11.20
2013,07,28,03,57,11.20
2013,07,28,03,58,11.20
2013,07,28,03,59,11.20
2013,07,28,04,00,11.20
2013,07,28,04,01,11.20
2013,07,28,04,02,11.20
2013,07,28,04,03,11.20
2013,07,28,04,04,11.20
2013,07,28,04,05,11.20
2013,07,28,04,06,11.20
2013,07,28,04,07,11.20
2013,07,28,04,08,11.20
2013,07,28,04,09,11.20
2013,07,28,04,10,11.10
2013,07,28,04,11,11.10
2013,07,28,04,12,11.10
2013,07,28,04,13,11.10
2013,07,28,04,14,11.10
2013,07,28,04,15,11.10
2013,07,28,04,16,11.10
2013,07,28,04,17,11.10
2013,07,28,04,18,11.10
2013,07,28,04,19,11.10
2013,07,28,04,20,11.10
2013,07,28,04,21,11.10
2013,07,28,04,22,11.10
2013,07,28,04,23,11.10
2013,07,28,04,24,11.10
2013,07,28,04,25,11.10
2013,07,28,04,26,11.00
2013,07,28,04,27,11.00
2013,07,28,04,28,11.00
2013,07,28,04,29,11.00
2013,07,28,04,30,10.90
2013,07,28,04,31,10.90
2013,07,28,04,32,10.90
2013,07,28,04,33,10.90
2013,07,28,04,34,10.90
2013,07,28,04,35,10.90
2013,07,28,04,36,10.90
2013,07,28,04,37,10.90
2013,07,28,04,38,10.90
2013,07,28,04,39,10.90
2013,07,28,04,40,10.90
2013,07,28,04,41,10.90
2013,07,28,04,42,10.90
2013,07,28,04,43,10.90
2013,07,28,04,44,10.90
2013,07,28,04,45,10.90
2013,07,28,04,46,10.90
2013,07,28,04,47,10.90
2013,07,28,04,48,10.90
2013,07,28,04,49,10.90
2013,07,28,04,50,10.80
2013,07,28,04,51,10.80
2013,07,28,04,52,10.80
2013,07,28,04,53,10.80
2013,07,28,04,54,10.80
2013,07,28,04,55,10.80
2013,07,28,04,56,10.80
2013,07,28,04,57,10.80
2013,07,28,04,58,10.80
2013,07,28,04,59,10.80
2013,07,28,05,00,10.70
2013,07,28,05,01,10.70
2013,07,28,05,02,10.70
2013,07,28,05,03,10.70
2013,07,28,05,04,10.70
2013,07,28,05,05,10.70
2013,07,28,05,06,10.70
2013,07,28,05,07,10.70
2013,07,28,05,08,10.70
2013,07,28,05,09,10.70
2013,07,28,05,10,10.70
2013,07,28,05,11,10.70
2013,07,28,05,12,10.70
2013,07,28,05,13,10.70
2013,07,28,05,14,10.70
2013,07,28,05,15,10.70
2013,07,28,05,16,10.70
2013,07,28,05,17,10.70
2013,07,28,05,18,10.70
2013,07,28,05,19,10.70
2013,07,28,05,20,10.70
2013,07,28,05,21,10.70
2013,07,28,05,22,10.70
2013,07,28,05,23,10.70
2013,07,28,05,24,10.70
2013,07,28,05,25,10.70
2013,07,28,05,26,10.70
2013,07,28,05,27,10.70
2013,07,28,05,28,10.70
2013,07,28,05,29,10.70
2013,07,28,05,30,10.70
2013,07,28,05,31,10.70
2013,07,28,05,32,10.70
2013,07,28,05,33,10.70
2013,07,28,05,34,10.70
2013,07,28,05,35,10.70
2013,07,28,05,36,10.70
2013,07,28,05,37,10.70
2013,07,28,05,38,10.70
2013,07,28,05,39,10.70
2013,07,28,05,40,10.70
2013,07,28,05,41,10.70
2013,07,28,05,42,10.60
2013,07,28,05,43,10.60
2013,07,28,05,44,10.60
2013,07,28,05,45,10.60
2013,07,28,05,46,10.60
2013,07,28,05,47,10.60
2013,07,28,05,48,10.60
2013,07,28,05,49,10.50
2013,07,28,05,50,10.50
2013,07,28,05,51,10.50
2013,07,28,05,52,10.50
2013,07,28,05,53,10.50
2013,07,28,05,54,10.40
2013,07,28,05,55,10.40
2013,07,28,05,56,10.40
2013,07,28,05,57,10.40
2013,07,28,05,58,10.40
2013,07,28,05,59,10.40
2013,07,28,06,00,10.40
2013,07,28,06,01,10.40
2013,07,28,06,02,10.40
2013,07,28,06,03,10.40
2013,07,28,06,04,10.40
2013,07,28,06,05,10.40
2013,07,28,06,06,10.40
2013,07,28,06,07,10.40
2013,07,28,06,08,10.40
2013,07,28,06,09,10.40
2013,07,28,06,10,10.40
2013,07,28,06,11,10.40
2013,07,28,06,12,10.40
2013,07,28,06,13,10.40
2013,07,28,06,14,10.40
2013,07,28,06,15,10.40
2013,07,28,06,16,10.40
2013,07,28,06,17,10.40
2013,07,28,06,18,10.40
2013,07,28,06,19,10.40
2013,07,28,06,20,10.40
2013,07,28,06,21,10.40
2013,07,28,06,22,10.40
2013,07,28,06,23,10.40
2013,07,28,06,24,10.40
2013,07,28,06,25,10.40
2013,07,28,06,26,10.40
2013,07,28,06,27,10.40
2013,07,28,06,28,10.40
2013,07,28,06,29,10.40
2013,07,28,06,30,10.40
2013,07,28,06,31,10.40
2013,07,28,06,32,10.40
2013,07,28,06,33,10.50
2013,07,28,06,34,10.50
2013,07,28,06,35,10.60
2013,07,28,06,36,10.60
2013,07,28,06,37,10.60
2013,07,28,06,38,10.70
2013,07,28,06,39,10.70
2013,07,28,06,40,10.80
2013,07,28,06,41,10.80
2013,07,28,06,42,10.80
2013,07,28,06,43,10.80
2013,07,28,06,44,10.90
2013,07,28,06,45,10.90
2013,07,28,06,46,10.90
2013,07,28,06,47,10.90
2013,07,28,06,48,10.90
2013,07,28,06,49,10.90
2013,07,28,06,50,10.90
2013,07,28,06,51,11.00
2013,07,28,06,52,11.00
2013,07,28,06,53,11.00
2013,07,28,06,54,11.00
2013,07,28,06,55,11.10
2013,07,28,06,56,11.10
2013,07,28,06,57,11.10
2013,07,28,06,58,11.20
2013,07,28,06,59,11.20
2013,07,28,07,00,11.20
2013,07,28,07,01,11.20
2013,07,28,07,02,11.30
2013,07,28,07,03,11.30
2013,07,28,07,04,11.30
2013,07,28,07,05,11.30
2013,07,28,07,06,11.40
2013,07,28,07,07,11.40
2013,07,28,07,08,11.40
2013,07,28,07,09,11.50
2013,07,28,07,10,11.50
2013,07,28,07,11,11.60
2013,07,28,07,12,11.60
2013,07,28,07,13,11.70
2013,07,28,07,14,11.80
2013,07,28,07,15,11.80
2013,07,28,07,16,11.90
2013,07,28,07,17,11.90
2013,07,28,07,18,12.00
2013,07,28,07,19,12.10
2013,07,28,07,20,12.20
2013,07,28,07,21,12.40
2013,07,28,07,22,12.50
2013,07,28,07,23,12.60
2013,07,28,07,24,12.70
2013,07,28,07,25,12.80
2013,07,28,07,26,13.00
2013,07,28,07,27,13.10
2013,07,28,07,28,13.20
2013,07,28,07,29,13.30
2013,07,28,07,30,13.30
2013,07,28,07,31,13.40
2013,07,28,07,32,13.50
2013,07,28,07,33,13.60
2013,07,28,07,34,13.70
2013,07,28,07,35,13.80
2013,07,28,07,36,13.90
2013,07,28,07,37,13.90
2013,07,28,07,38,14.00
2013,07,28,07,39,14.10
2013,07,28,07,40,14.20
2013,07,28,07,41,14.20
2013,07,28,07,42,14.20
2013,07,28,07,43,14.30
2013,07,28,07,44,14.30
2013,07,28,07,45,14.40
2013,07,28,07,46,14.50
2013,07,28,07,47,14.60
2013,07,28,07,48,14.60
2013,07,28,07,49,14.70
2013,07,28,07,50,14.70
2013,07,28,07,51,14.70
2013,07,28,07,52,14.70
2013,07,28,07,53,14.70
2013,07,28,07,54,14.80
2013,07,28,07,55,14.80
2013,07,28,07,56,14.80
2013,07,28,07,57,14.80
2013,07,28,07,58,14.90
2013,07,28,07,59,14.90
2013,07,28,08,00,15.00
2013,07,28,08,01,15.00
2013,07,28,08,02,15.00
2013,07,28,08,03,15.00
2013,07,28,08,04,15.00
2013,07,28,08,05,15.00
2013,07,28,08,06,15.00
2013,07,28,08,07,15.10
2013,07,28,08,08,15.10
2013,07,28,08,09,15.00
2013,07,28,08,10,15.00
2013,07,28,08,11,15.00
2013,07,28,08,12,15.00
2013,07,28,08,13,14.90
2013,07,28,08,14,14.90
2013,07,28,08,15,14.80
2013,07,28,08,16,14.80
2013,07,28,08,17,14.80
2013,07,28,08,18,14.70
2013,07,28,08,19,14.70
2013,07,28,08,20,14.70
2013,07,28,08,21,14.70
2013,07,28,08,22,14.70
2013,07,28,08,23,14.80
2013,07,28,08,24,14.80
2013,07,28,08,25,14.90
2013,07,28,08,26,14.90
2013,07,28,08,27,15.00
2013,07,28,08,28,15.00
2013,07,28,08,29,15.10
2013,07,28,08,30,15.10
2013,07,28,08,31,15.20
2013,07,28,08,32,15.20
2013,07,28,08,33,15.30
2013,07,28,08,34,15.30
2013,07,28,08,35,15.40
2013,07,28,08,36,15.50
2013,07,28,08,37,15.50
2013,07,28,08,38,15.50
2013,07,28,08,39,15.50
2013,07,28,08,40,15.60
2013,07,28,08,41,15.60
2013,07,28,08,42,15.70
2013,07,28,08,43,15.70
2013,07,28,08,44,15.70
2013,07,28,08,45,15.80
2013,07,28,08,46,15.80
2013,07,28,08,47,15.80
2013,07,28,08,48,15.80
2013,07,28,08,49,15.80
2013,07,28,08,50,15.80
2013,07,28,08,51,15.80
2013,07,28,08,52,15.70
2013,07,28,08,53,15.70
2013,07,28,08,54,15.70
2013,07,28,08,55,15.80
2013,07,28,08,56,15.80
2013,07,28,08,57,15.80
2013,07,28,08,58,15.80
2013,07,28,08,59,15.90
2013,07,28,09,00,15.90
2013,07,28,09,01,16.00
2013,07,28,09,02,16.00
2013,07,28,09,03,16.10
2013,07,28,09,04,16.00
2013,07,28,09,05,16.10
2013,07,28,09,06,16.10
2013,07,28,09,07,16.20
2013,07,28,09,08,16.20
2013,07,28,09,09,16.20
2013,07,28,09,10,16.30
2013,07,28,09,11,16.30
2013,07,28,09,12,16.30
2013,07,28,09,13,16.30
2013,07,28,09,14,16.30
2013,07,28,09,15,16.30
2013,07,28,09,16,16.20
2013,07,28,09,17,16.10
2013,07,28,09,18,16.00
2013,07,28,09,19,15.90
2013,07,28,09,20,15.80
2013,07,28,09,21,15.70
2013,07,28,09,22,15.70
2013,07,28,09,23,15.70
2013,07,28,09,24,15.70
2013,07,28,09,25,15.60
2013,07,28,09,26,15.60
2013,07,28,09,27,15.50
2013,07,28,09,28,15.40
2013,07,28,09,29,15.30
2013,07,28,09,30,15.40
2013,07,28,09,31,15.30
2013,07,28,09,32,15.30
2013,07,28,09,33,15.30
2013,07,28,09,34,15.30
2013,07,28,09,35,15.30
2013,07,28,09,36,15.30
2013,07,28,09,37,15.30
2013,07,28,09,38,15.30
2013,07,28,09,39,15.40
2013,07,28,09,40,15.40
2013,07,28,09,41,15.40
2013,07,28,09,42,15.20
2013,07,28,09,43,15.10
2013,07,28,09,44,15.00
2013,07,28,09,45,15.00
2013,07,28,09,46,14.90
2013,07,28,09,47,15.00
2013,07,28,09,48,14.90
2013,07,28,09,49,14.90
2013,07,28,09,50,14.90
2013,07,28,09,51,15.00
2013,07,28,09,52,15.00
2013,07,28,09,53,15.10
2013,07,28,09,54,15.10
2013,07,28,09,55,15.20
2013,07,28,09,56,15.20
2013,07,28,09,57,15.20
2013,07,28,09,58,15.30
2013,07,28,09,59,15.30
2013,07,28,10,00,15.30
2013,07,28,10,01,15.30
2013,07,28,10,02,15.30
2013,07,28,10,03,15.30
2013,07,28,10,04,15.30
2013,07,28,10,05,15.30
2013,07,28,10,06,15.20
2013,07,28,10,07,15.20
2013,07,28,10,08,15.20
2013,07,28,10,09,15.10
2013,07,28,10,10,15.10
2013,07,28,10,11,15.00
2013,07,28,10,12,15.00
2013,07,28,10,13,14.90
2013,07,28,10,14,14.90
2013,07,28,10,15,14.90
2013,07,28,10,16,14.90
2013,07,28,10,17,14.90
2013,07,28,10,18,14.90
2013,07,28,10,19,14.90
2013,07,28,10,20,14.90
2013,07,28,10,21,14.90
2013,07,28,10,22,14.90
2013,07,28,10,23,14.80
2013,07,28,10,24,14.80
2013,07,28,10,25,14.70
2013,07,28,10,26,14.60
2013,07,28,10,27,14.50
2013,07,28,10,28,14.40
2013,07,28,10,29,14.30
2013,07,28,10,30,14.20
2013,07,28,10,31,14.20
2013,07,28,10,32,14.20
2013,07,28,10,33,14.20
2013,07,28,10,34,14.30
2013,07,28,10,35,14.30
2013,07,28,10,36,14.30
2013,07,28,10,37,14.30
2013,07,28,10,38,14.30
2013,07,28,10,39,14.40
2013,07,28,10,40,14.40
2013,07,28,10,41,14.30
2013,07,28,10,42,14.20
2013,07,28,10,43,14.00
2013,07,28,10,44,13.80
2013,07,28,10,45,13.60
2013,07,28,10,46,13.50
2013,07,28,10,47,13.40
2013,07,28,10,48,13.40
2013,07,28,10,49,13.30
2013,07,28,10,50,13.30
2013,07,28,10,51,13.40
2013,07,28,10,52,13.30
2013,07,28,10,53,13.30
2013,07,28,10,54,13.30
2013,07,28,10,55,13.40
2013,07,28,10,56,13.50
2013,07,28,10,57,13.50
2013,07,28,10,58,13.60
2013,07,28,10,59,13.70
2013,07,28,11,00,13.70
2013,07,28,11,01,13.70
2013,07,28,11,02,13.70
2013,07,28,11,03,13.80
2013,07,28,11,04,13.80
2013,07,28,11,05,13.90
2013,07,28,11,06,14.00
2013,07,28,11,07,14.10
2013,07,28,11,08,14.10
2013,07,28,11,09,14.10
2013,07,28,11,10,14.10
2013,07,28,11,11,14.10
2013,07,28,11,12,14.00
2013,07,28,11,13,13.90
2013,07,28,11,14,13.80
2013,07,28,11,15,13.80
2013,07,28,11,16,13.80
2013,07,28,11,17,13.90
2013,07,28,11,18,13.90
2013,07,28,11,19,13.90
2013,07,28,11,20,13.90
2013,07,28,11,21,13.90
2013,07,28,11,22,13.90
2013,07,28,11,23,13.80
2013,07,28,11,24,13.70
2013,07,28,11,25,13.70
2013,07,28,11,26,13.60
2013,07,28,11,27,13.60
2013,07,28,11,28,13.70
2013,07,28,11,29,13.60
2013,07,28,11,30,13.60
2013,07,28,11,31,13.60
2013,07,28,11,32,13.70
2013,07,28,11,33,13.80
2013,07,28,11,34,13.80
2013,07,28,11,35,13.90
2013,07,28,11,36,14.00
2013,07,28,11,37,14.10
2013,07,28,11,38,14.20
2013,07,28,11,39,14.20
2013,07,28,11,40,14.30
2013,07,28,11,41,14.30
2013,07,28,11,42,14.40
2013,07,28,11,43,14.60
2013,07,28,11,44,14.60
2013,07,28,11,45,14.60
2013,07,28,11,46,14.60
2013,07,28,11,47,14.50
2013,07,28,11,48,14.60
2013,07,28,11,49,14.60
2013,07,28,11,50,14.60
2013,07,28,11,51,14.70
2013,07,28,11,52,14.70
2013,07,28,11,53,14.70
2013,07,28,11,54,14.80
2013,07,28,11,55,14.80
2013,07,28,11,56,14.90
2013,07,28,11,57,14.90
2013,07,28,11,58,14.90
2013,07,28,11,59,14.90
2013,07,28,12,00,14.90
2013,07,28,12,01,14.80
2013,07,28,12,02,14.90
2013,07,28,12,03,15.00
2013,07,28,12,04,15.00
2013,07,28,12,05,15.00
2013,07,28,12,06,14.90
2013,07,28,12,07,14.90
2013,07,28,12,08,14.90
2013,07,28,12,09,15.00
2013,07,28,12,10,15.10
2013,07,28,12,11,15.20
2013,07,28,12,12,15.10
2013,07,28,12,13,15.00
2013,07,28,12,14,15.00
2013,07,28,12,15,14.90
2013,07,28,12,16,14.80
2013,07,28,12,17,14.70
2013,07,28,12,18,14.70
2013,07,28,12,19,14.70
2013,07,28,12,20,14.60
2013,07,28,12,21,14.50
2013,07,28,12,22,14.50
2013,07,28,12,23,14.50
2013,07,28,12,24,14.50
2013,07,28,12,25,14.40
2013,07,28,12,26,14.40
2013,07,28,12,27,14.40
2013,07,28,12,28,14.40
2013,07,28,12,29,14.50
2013,07,28,12,30,14.40
2013,07,28,12,31,14.50
2013,07,28,12,32,14.60
2013,07,28,12,33,14.70
2013,07,28,12,34,14.70
2013,07,28,12,35,14.60
2013,07,28,12,36,14.50
2013,07,28,12,37,14.40
2013,07,28,12,38,14.30
2013,07,28,12,39,14.20
2013,07,28,12,40,14.10
2013,07,28,12,41,14.10
2013,07,28,12,42,14.00
2013,07,28,12,43,13.90
2013,07,28,12,44,13.90
2013,07,28,12,45,13.90
2013,07,28,12,46,13.90
2013,07,28,12,47,13.90
2013,07,28,12,48,14.00
2013,07,28,12,49,14.10
2013,07,28,12,50,14.10
2013,07,28,12,51,14.10
2013,07,28,12,52,14.10
2013,07,28,12,53,14.10
2013,07,28,12,54,14.10
2013,07,28,12,55,14.00
2013,07,28,12,56,14.10
2013,07,28,12,57,14.10
2013,07,28,12,58,14.10
2013,07,28,12,59,14.10
2013,07,28,13,00,14.20
2013,07,28,13,01,14.20
2013,07,28,13,02,14.20
2013,07,28,13,03,14.20
2013,07,28,13,04,14.20
2013,07,28,13,05,14.30
2013,07,28,13,06,14.30
2013,07,28,13,07,14.40
2013,07,28,13,08,14.40
2013,07,28,13,09,14.40
2013,07,28,13,10,14.40
2013,07,28,13,11,14.50
2013,07,28,13,12,14.50
2013,07,28,13,13,14.40
2013,07,28,13,14,14.40
2013,07,28,13,15,14.40
2013,07,28,13,16,14.50
2013,07,28,13,17,14.50
2013,07,28,13,18,14.50
2013,07,28,13,19,14.60
2013,07,28,13,20,14.70
2013,07,28,13,21,14.80
2013,07,28,13,22,14.80
2013,07,28,13,23,14.80
2013,07,28,13,24,14.80
2013,07,28,13,25,14.90
2013,07,28,13,26,14.90
2013,07,28,13,27,15.00
2013,07,28,13,28,15.00
2013,07,28,13,29,15.00
2013,07,28,13,30,15.10
2013,07,28,13,31,15.20
2013,07,28,13,32,15.20
2013,07,28,13,33,15.20
2013,07,28,13,34,15.20
2013,07,28,13,35,15.30
2013,07,28,13,36,15.40
2013,07,28,13,37,15.40
2013,07,28,13,38,15.40
2013,07,28,13,39,15.40
2013,07,28,13,40,15.40
2013,07,28,13,41,15.40
2013,07,28,13,42,15.40
2013,07,28,13,43,15.40
2013,07,28,13,44,15.40
2013,07,28,13,45,15.40
2013,07,28,13,46,15.50
2013,07,28,13,47,15.50
2013,07,28,13,48,15.60
2013,07,28,13,49,15.60
2013,07,28,13,50,15.70
2013,07,28,13,51,15.80
2013,07,28,13,52,15.80
2013,07,28,13,53,15.80
2013,07,28,13,54,15.80
2013,07,28,13,55,15.70
2013,07,28,13,56,15.70
2013,07,28,13,57,15.70
2013,07,28,13,58,15.60
2013,07,28,13,59,15.60
2013,07,28,14,00,15.60
2013,07,28,14,01,15.60
2013,07,28,14,02,15.60
2013,07,28,14,03,15.60
2013,07,28,14,04,15.60
2013,07,28,14,05,15.70
2013,07,28,14,06,15.70
2013,07,28,14,07,15.80
2013,07,28,14,08,15.90
2013,07,28,14,09,16.00
2013,07,28,14,10,16.10
2013,07,28,14,11,16.10
2013,07,28,14,12,16.10
2013,07,28,14,13,16.30
2013,07,28,14,14,16.40
2013,07,28,14,15,16.50
2013,07,28,14,16,16.50
2013,07,28,14,17,16.40
2013,07,28,14,18,16.40
2013,07,28,14,19,16.40
2013,07,28,14,20,16.40
2013,07,28,14,21,16.40
2013,07,28,14,22,16.40
2013,07,28,14,23,16.40
2013,07,28,14,24,16.50
2013,07,28,14,25,16.60
2013,07,28,14,26,16.70
2013,07,28,14,27,16.70
2013,07,28,14,28,16.60
2013,07,28,14,29,16.60
2013,07,28,14,30,16.50
2013,07,28,14,31,16.50
2013,07,28,14,32,16.40
2013,07,28,14,33,16.40
2013,07,28,14,34,16.50
2013,07,28,14,35,16.60
2013,07,28,14,36,16.70
2013,07,28,14,37,16.70
2013,07,28,14,38,16.70
2013,07,28,14,39,16.70
2013,07,28,14,40,16.70
2013,07,28,14,41,16.80
2013,07,28,14,42,16.90
2013,07,28,14,43,17.00
2013,07,28,14,44,17.10
2013,07,28,14,45,17.20
2013,07,28,14,46,17.30
2013,07,28,14,47,17.30
2013,07,28,14,48,17.40
2013,07,28,14,49,17.40
2013,07,28,14,50,17.40
2013,07,28,14,51,17.50
2013,07,28,14,52,17.60
2013,07,28,14,53,17.70
2013,07,28,14,54,17.70
2013,07,28,14,55,17.80
2013,07,28,14,56,17.90
2013,07,28,14,57,18.00
2013,07,28,14,58,18.00
2013,07,28,14,59,18.10
2013,07,28,15,00,18.10
2013,07,28,15,01,18.10
2013,07,28,15,02,18.10
2013,07,28,15,03,18.00
2013,07,28,15,04,18.00
2013,07,28,15,05,18.00
2013,07,28,15,06,18.00
2013,07,28,15,07,17.90
2013,07,28,15,08,17.90
2013,07,28,15,09,17.90
2013,07,28,15,10,17.90
2013,07,28,15,11,17.90
2013,07,28,15,12,18.00
2013,07,28,15,13,17.90
2013,07,28,15,14,17.90
2013,07,28,15,15,17.90
2013,07,28,15,16,17.90
2013,07,28,15,17,17.90
2013,07,28,15,18,17.90
2013,07,28,15,19,17.90
2013,07,28,15,20,18.00
2013,07,28,15,21,17.90
2013,07,28,15,22,17.90
2013,07,28,15,23,18.00
2013,07,28,15,24,18.10
2013,07,28,15,25,18.10
2013,07,28,15,26,18.10
2013,07,28,15,27,18.10
2013,07,28,15,28,18.10
2013,07,28,15,29,18.10
2013,07,28,15,30,18.30
2013,07,28,15,31,18.40
2013,07,28,15,32,18.50
2013,07,28,15,33,18.60
2013,07,28,15,34,18.60
2013,07,28,15,35,18.70
2013,07,28,15,36,18.80
2013,07,28,15,37,18.90
2013,07,28,15,38,18.90
2013,07,28,15,39,19.00
2013,07,28,15,40,19.10
2013,07,28,15,41,19.20
2013,07,28,15,42,19.30
2013,07,28,15,43,19.30
2013,07,28,15,44,19.40
2013,07,28,15,45,19.50
2013,07,28,15,46,19.50
2013,07,28,15,47,19.40
2013,07,28,15,48,19.40
2013,07,28,15,49,19.30
2013,07,28,15,50,19.20
2013,07,28,15,51,19.20
2013,07,28,15,52,19.30
2013,07,28,15,53,19.30
2013,07,28,15,54,19.30
2013,07,28,15,55,19.30
2013,07,28,15,56,19.30
2013,07,28,15,57,19.30
2013,07,28,15,58,19.30
2013,07,28,15,59,19.30
2013,07,28,16,00,19.20
2013,07,28,16,01,19.30
2013,07,28,16,02,19.30
2013,07,28,16,03,19.30
2013,07,28,16,04,19.30
2013,07,28,16,05,19.40
2013,07,28,16,06,19.40
2013,07,28,16,07,19.40
2013,07,28,16,08,19.40
2013,07,28,16,09,19.40
2013,07,28,16,10,19.40
2013,07,28,16,11,19.50
2013,07,28,16,12,19.50
2013,07,28,16,13,19.60
2013,07,28,16,14,19.50
2013,07,28,16,15,19.60
2013,07,28,16,16,19.60
2013,07,28,16,17,19.70
2013,07,28,16,18,19.70
2013,07,28,16,19,19.70
2013,07,28,16,20,19.70
2013,07,28,16,21,19.60
2013,07,28,16,22,19.60
2013,07,28,16,23,19.60
2013,07,28,16,24,19.50
2013,07,28,16,25,19.50
2013,07,28,16,26,19.60
2013,07,28,16,27,19.60
2013,07,28,16,28,19.70
2013,07,28,16,29,19.80
2013,07,28,16,30,19.80
2013,07,28,16,31,19.80
2013,07,28,16,32,19.80
2013,07,28,16,33,19.80
2013,07,28,16,34,19.90
2013,07,28,16,35,20.00
2013,07,28,16,36,20.10
2013,07,28,16,37,20.20
2013,07,28,16,38,20.10
2013,07,28,16,39,20.20
2013,07,28,16,40,20.10
2013,07,28,16,41,20.10
2013,07,28,16,42,20.00
2013,07,28,16,43,20.00
2013,07,28,16,44,19.90
2013,07,28,16,45,19.90
2013,07,28,16,46,19.90
2013,07,28,16,47,19.90
2013,07,28,16,48,19.90
2013,07,28,16,49,19.90
2013,07,28,16,50,20.00
2013,07,28,16,51,20.00
2013,07,28,16,52,20.00
2013,07,28,16,53,20.10
2013,07,28,16,54,20.10
2013,07,28,16,55,20.10
2013,07,28,16,56,20.10
2013,07,28,16,57,20.10
2013,07,28,16,58,20.10
2013,07,28,16,59,20.10
2013,07,28,17,00,20.20
2013,07,28,17,01,20.20
2013,07,28,17,02,20.30
2013,07,28,17,03,20.30
2013,07,28,17,04,20.40
2013,07,28,17,05,20.40
2013,07,28,17,06,20.30
2013,07,28,17,07,20.30
2013,07,28,17,08,20.20
2013,07,28,17,09,20.10
2013,07,28,17,10,19.90
2013,07,28,17,11,19.80
2013,07,28,17,12,19.80
2013,07,28,17,13,19.70
2013,07,28,17,14,19.70
2013,07,28,17,15,19.80
2013,07,28,17,16,19.80
2013,07,28,17,17,19.80
2013,07,28,17,18,19.80
2013,07,28,17,19,19.80